Location: Boiro
(42.6475°N, 8.8834°W)
Time: 17:55:38
(UTC+01:00)

Tiros 1 despin weight - Pass Details

Date: 07 December 2021
Orbit: 592 x 641 km, 48.2° (Epoch: 20 January)

Event Time Altitude Azimuth Distance (km) Brightness Sun altitude
Rises 17:08:13 0° 291° (WNW) 2,830 ? 7.2°
Reaches altitude 10° 17:10:34 10° 298° (WNW) 1,924 ? 6.9°
Maximum altitude 17:14:50 47° 12° (NNE) 792 ? 6.3°
Drops below altitude 10° 17:19:05 10° 87° (E) 1,922 ? 5.7°
Sets 17:21:26 0° 93° (E) 2,825 ? 5.3°
